Simultaneous Nadir Overpasses (SNOs) Predictions

Prediction of SNOs between TERRA and METOP-C Satellite Orbit:

Table of predicted SNOs for the next 14.0 days since TLE Epoch: 6/22/2019
Index Date (TERRA) Time (TERRA) Lat,Lon (TERRA) SZA (TERRA ) Date (METOP-C) Time (METOP-C) Lat,Lon (METOP-C) SZA (METOP-C ) Distance(km) Time Diff (sec)
1 06/23/2019 04:31:04 -81.31, -20.48 119.25 06/23/2019 04:30:02 -81.30, -20.28 119.26 3.25 62
2 06/23/2019 05:20:30 81.31, 147.29 60.78 06/23/2019 05:20:41 81.31, 147.48 60.80 3.16 11
3 06/26/2019 00:05:18 -81.30, 45.89 119.22 06/26/2019 00:04:26 -81.30, 45.77 119.26 2.09 52
4 06/26/2019 00:54:44 81.31,-146.38 60.80 06/26/2019 00:55:05 81.30,-146.46 60.80 1.29 21
5 06/28/2019 19:39:32 -81.29, 112.21 119.15 06/28/2019 19:38:49 -81.30, 112.21 119.16 0.39 43
6 06/28/2019 20:28:58 81.30, -80.11 60.87 06/28/2019 20:29:28 81.30, -80.00 60.90 1.97 30
7 07/01/2019 15:13:45 -81.31, 178.85 118.97 07/01/2019 15:13:11 -81.30, 179.04 118.96 3.08 34
8 07/01/2019 16:03:11 81.31, -13.50 61.04 07/01/2019 16:03:51 81.31, -13.54 61.06 0.72 40
9 07/04/2019 10:47:58 -81.29,-114.93 118.80 07/04/2019 10:47:34 -81.30,-114.92 118.81 0.64 24




NCC Satellite Simultaneous Nadir Overpasses (SNOs) Prediction Service
